Weather History for Lancaster, PA

Change the Weather History Date:

Friday, August 9, 2013

  Actual Average Record
Temperature  
Mean Temperature 78 °F -  
Max Temperature 84 °F 85 °F 99 °F (2001)
Min Temperature 73 °F 65 °F 50 °F (1989)
Cooling Degree Days 14    
Growing Degree Days 28 (Base 50)    
Moisture  
Dew Point 72 °F    
Average Humidity 84    
Maximum Humidity 94    
Minimum Humidity 67    
Precipitation  
Precipitation 0.12 in - - ()
Sea Level Pressure  
Sea Level Pressure 29.90 in    
Wind  
Wind Speed 8 mph (SW)    
Max Wind Speed 15 mph    
Max Gust Speed 31 mph    
Visibility 8 miles    
Events Rain    
Averages and records for this station are not official NWS values.
T = Trace of Precipitation, MM = Missing Value Source: NWS Daily Summary

Daily Weather History Graph

Daily Weather History Graph

Search for Another Location

Airport:

Trip Planner

Search our weather history database for the weather conditions in past years. The results will help you decide how hot, cold, wet, or windy it might be!

Date:

Astronomy

Aug. 09, 2013 Rise Set
Actual Time 6:11 AM EDT 8:09 PM EDT
Civil Twilight 5:41 AM EDT 8:39 PM EDT
Nautical Twilight 5:05 AM EDT 9:15 PM EDT
Astronomical Twilight 4:26 AM EDT 9:53 PM EDT
Moon 8:55 AM EDT (8/9) 9:17 PM EDT (8/9)
Length of Visible Light 14h 57m
Length of Day
13h 58m
Waxing Crescent, 7% of the Moon is Illuminated
Aug 9
Waxing Crescent
Aug 14
First Quarter
Aug 20
Full
Aug 28
Last Quarter
Sep 5
New

Hourly Weather History & Observations

Time (EDT) Temp. Heat Index Dew Point Humidity Pressure Visibility Wind Dir Wind Speed Gust Speed Precip Events Conditions
12:30 AM 73.4 °F - 71.6 °F 94% 29.99 in 9.0 mi South 5.8 mph - 0.01 in Rain Light Rain
12:53 AM 73.9 °F - 72.0 °F 93% 29.97 in 8.0 mi South 6.9 mph - 0.01 in Rain Light Rain
1:48 AM 73.4 °F - 71.6 °F 94% 29.96 in 8.0 mi SSE 5.8 mph - 0.01 in   Overcast
1:53 AM 73.9 °F - 72.0 °F 93% 29.95 in 8.0 mi SSE 5.8 mph - 0.01 in   Overcast
2:51 AM 73.4 °F - 71.6 °F 94% 29.95 in 8.0 mi South 6.9 mph - 0.00 in Rain Light Rain
2:53 AM 73.9 °F - 72.0 °F 93% 29.94 in 8.0 mi South 8.1 mph - 0.00 in   Overcast
3:35 AM 75.2 °F - 71.6 °F 89% 29.94 in 6.0 mi South 6.9 mph - 0.01 in   Mostly Cloudy
3:45 AM 75.2 °F - 71.6 °F 89% 29.93 in 7.0 mi South 8.1 mph - 0.01 in   Overcast
3:53 AM 75.0 °F - 72.0 °F 90% 29.93 in 7.0 mi South 6.9 mph - 0.01 in   Mostly Cloudy
4:20 AM 75.2 °F - 71.6 °F 89% 29.93 in 7.0 mi South 5.8 mph - N/A   Mostly Cloudy
4:32 AM 75.2 °F - 71.6 °F 89% 29.92 in 7.0 mi South 9.2 mph - N/A   Overcast
4:53 AM 75.0 °F - 72.0 °F 90% 29.91 in 7.0 mi South 8.1 mph - N/A   Overcast
4:58 AM 75.2 °F - 71.6 °F 89% 29.92 in 7.0 mi South 5.8 mph - N/A   Mostly Cloudy
5:12 AM 75.2 °F - 71.6 °F 89% 29.92 in 7.0 mi SSW 9.2 mph - N/A   Mostly Cloudy
5:22 AM 75.2 °F - 71.6 °F 89% 29.92 in 7.0 mi South 5.8 mph - N/A   Mostly Cloudy
5:53 AM 75.0 °F - 72.0 °F 90% 29.90 in 8.0 mi South 9.2 mph - N/A   Overcast
6:53 AM 75.0 °F - 72.0 °F 90% 29.89 in 6.0 mi South 10.4 mph - 0.00 in Rain Light Rain
7:53 AM 75.9 °F - 72.0 °F 87% 29.89 in 7.0 mi SSW 9.2 mph - 0.00 in   Mostly Cloudy
8:08 AM 75.2 °F - 71.6 °F 89% 29.90 in 7.0 mi SW 10.4 mph - N/A   Mostly Cloudy
8:43 AM 77.0 °F - 73.4 °F 89% 29.90 in 8.0 mi SW 11.5 mph - N/A   Mostly Cloudy
8:53 AM 78.1 °F - 73.0 °F 84% 29.89 in 8.0 mi SW 11.5 mph - N/A   Mostly Cloudy
9:53 AM 80.1 °F 83.8 °F 72.0 °F 76% 29.88 in 10.0 mi WSW 8.1 mph - N/A   Mostly Cloudy
10:08 AM 80.6 °F 84.6 °F 71.6 °F 74% 29.89 in 10.0 mi West 10.4 mph - N/A   Scattered Clouds
10:23 AM 82.4 °F 87.2 °F 71.6 °F 70% 29.89 in 6.0 mi WSW 11.5 mph - 0.01 in   Haze
10:53 AM 81.0 °F 85.2 °F 72.0 °F 74% 29.89 in 10.0 mi WSW 12.7 mph - 0.01 in   Overcast
11:12 AM 82.4 °F 87.2 °F 71.6 °F 70% 29.89 in 10.0 mi West 11.5 mph - N/A   Mostly Cloudy
11:53 AM 82.9 °F 87.5 °F 71.1 °F 67% 29.89 in 10.0 mi WSW 10.4 mph - N/A   Mostly Cloudy
12:53 PM 82.0 °F 86.3 °F 71.1 °F 69% 29.87 in 6.0 mi WSW 11.5 mph - 0.00 in Rain Light Rain
1:53 PM 82.9 °F 89.4 °F 73.9 °F 74% 29.86 in 10.0 mi West 11.5 mph 17.3 mph 0.01 in   Partly Cloudy
2:53 PM 84.0 °F 89.6 °F 72.0 °F 67% 29.84 in 10.0 mi SW 9.2 mph - 0.00 in   Scattered Clouds
3:36 PM 75.2 °F - 71.6 °F 89% 29.87 in 2.5 mi WSW 15.0 mph 31.1 mph 0.04 in Rain Rain
3:39 PM 75.2 °F - 71.6 °F 89% 29.87 in 1.8 mi WSW 10.4 mph 29.9 mph 0.06 in Rain Heavy Rain
3:47 PM 77.0 °F - 71.6 °F 83% 29.86 in 4.0 mi West 9.2 mph - 0.07 in Rain Light Rain
3:53 PM 78.1 °F - 73.0 °F 84% 29.86 in 10.0 mi West 8.1 mph - 0.07 in   Overcast
4:53 PM 82.0 °F 87.4 °F 73.0 °F 74% 29.85 in 10.0 mi WSW 12.7 mph - N/A   Clear
5:53 PM 82.0 °F 86.3 °F 71.1 °F 69% 29.83 in 10.0 mi West 13.8 mph - N/A   Mostly Cloudy
6:53 PM 82.0 °F 86.7 °F 72.0 °F 71% 29.84 in 10.0 mi West 9.2 mph - N/A   Mostly Cloudy
7:53 PM 79.0 °F - 70.0 °F 74% 29.86 in 10.0 mi West 8.1 mph - N/A   Clear
8:53 PM 75.9 °F - 70.0 °F 82% 29.88 in 10.0 mi WNW 5.8 mph - N/A   Clear
9:53 PM 75.9 °F - 71.1 °F 85% 29.91 in 10.0 mi West 5.8 mph - N/A   Clear
10:53 PM 75.0 °F - 71.1 °F 87% 29.91 in 9.0 mi West 6.9 mph - N/A   Clear
11:53 PM 73.9 °F - 70.0 °F 87% 29.92 in 9.0 mi WNW 8.1 mph - N/A   Clear